{"data":{"norad_id":60138,"epoch":"2026-05-25T04:45:45.491616Z","epoch_age_seconds":57836,"freshness":"FRESH","line1":"1 60138U 24120D   26145.19844319 -.00208795  00000+0 -70049-2 0  9998","line2":"2 60138  53.1599 324.2900 0006232 266.0183  94.0106 15.31216561108090","mean_motion":15.31216561,"eccentricity":0.0006232,"inclination_deg":53.1599,"raan_deg":324.29,"arg_perigee_deg":266.0183,"mean_anomaly_deg":94.0106,"bstar":-0.0070049,"rev_number":10809,"period_min":94.042870007856,"perigee_km":467.91236239566,"apogee_km":476.45059935022,"semimajor_km":6850.3184808729,"source":"CELESTRAK","updated_at":"2026-05-25T13:38:19.186809Z"}}